Wind_Speed
32 35 37 39 40 42 44 49 58 67 75 79 81 85 94 103 105 103 101 99 96 93 89 86 85 82 77 70 67 60 51 50 51 51 51 50 46 43
23 28 32 34 35 37 40 45 53 63 70 76 77 79 86 97 103 103 101 99 97 94 89 85 83 82 80 77 70 65 57 50 48 48 47 45 44 41
16 22 26 28 30 33 36 41 48 58 65 72 75 76 80 89 99 102 100 97 96 93 89 85 81 79 79 79 74 68 62 55 50 47 45 44 43 42
10 16 20 23 25 28 32 37 44 53 61 67 72 73 75 82 92 100 101 97 95 92 88 84 81 78 78 78 75 71 66 60 54 48 46 44 44 44
7 12 16 19 21 24 28 33 40 49 57 63 68 70 71 76 86 96 101 98 95 91 88 85 81 78 76 75 74 73 69 64 57 51 49 46 45 45
6 10 14 16 18 21 24 30 37 45 53 60 65 67 68 70 79 90 99 101 96 89 86 84 81 78 76 74 73 72 70 68 63 57 53 49 47 45
7 9 12 14 16 18 22 27 34 41 49 57 62 64 64 66 72 84 94 99 97 90 85 83 79 76 74 72 71 71 70 69 67 61 58 53 49 46
7 9 11 12 14 17 20 25 32 39 46 54 59 61 61 62 65 74 87 96 95 91 86 81 77 75 73 70 69 69 70 70 68 66 61 56 51 49
5 7 10 12 15 17 21 25 30 36 43 50 56 58 57 57 59 66 77 89 94 90 86 79 76 73 73 70 68 67 67 68 67 65 63 61 57 54
3 5 9 12 15 18 21 25 29 34 40 46 52 54 54 53 55 60 69 79 88 90 88 81 73 70 70 70 69 67 66 65 65 66 65 63 60 58
4 3 8 12 16 19 22 25 28 32 38 44 48 51 51 50 51 55 62 71 79 84 85 81 74 69 69 69 69 68 66 65 65 65 65 63 61 58
6 1 7 12 16 20 22 25 28 32 36 41 46 49 49 48 48 50 57 64 70 76 80 79 76 72 71 70 69 68 67 66 65 64 64 64 62 61
8 2 7 13 17 20 23 24 27 30 34 38 42 45 47 46 46 47 53 59 65 69 72 74 73 73 73 72 71 69 68 67 65 64 63 63 62 61
11 4 7 13 17 20 22 24 26 28 31 34 37 41 43 44 45 47 51 57 61 65 67 70 69 69 71 73 72 71 70 68 67 64 62 61 60 60
15 7 6 12 16 19 21 23 25 27 29 31 33 35 38 41 44 47 51 57 62 65 66 67 66 65 68 71 72 72 71 70 69 66 63 61 59 58
20 10 6 10 14 17 20 21 23 24 26 27 29 31 34 37 41 46 51 58 64 66 67 67 67 66 65 68 71 72 71 70 69 67 63 62 60 58
26 15 6 7 12 15 18 20 21 22 23 24 25 27 29 33 38 44 50 58 66 69 69 68 67 64 62 65 69 72 72 69 67 64 62 61 60 60
32 21 10 4 9 13 17 18 20 21 22 21 22 23 25 28 32 39 47 55 64 69 71 69 67 65 62 60 65 68 69 68 66 64 61 59 59 60
38 27 16 6 5 11 15 18 19 20 21 21 20 21 22 24 27 32 41 51 61 68 69 69 68 66 65 63 64 66 65 66 66 64 62 60 59 58
41 35 24 13 3 8 14 18 20 21 21 21 20 20 20 21 24 27 34 45 56 63 66 67 67 66 64 62 62 62 62 62 64 63 62 60 59 57
41 38 32 22 10 2 10 16 20 22 23 22 21 20 20 20 22 25 30 38 49 57 61 64 66 66 63 61 61 61 61 61 59 59 59 58 57 57
39 38 36 30 20 8 4 13 19 23 24 24 23 22 21 21 22 23 27 34 42 51 56 59 63 65 63 61 58 57 57 57 58 58 57 56 55 54
36 36 36 33 27 19 7 6 15 21 25 27 26 25 23 22 22 23 26 32 38 45 51 55 59 63 63 61 58 55 55 55 56 57 57 57 56 55
Wind_Direction
230 231 233 234 234 233 227 220 216 215 215 214 214 213 210 208 207 207 208 210 211 214 215 216 218 220 222 222 223 223 221 219 217 218 220 219 218 219
223 226 229 231 232 230 226 219 214 212 213 213 213 213 210 208 206 205 206 208 211 213 215 216 217 219 220 223 225 225 223 218 216 215 215 216 216 218
219 224 227 229 230 228 224 218 212 210 210 212 211 212 210 208 206 204 205 207 210 212 214 215 216 217 219 222 223 224 223 222 219 216 218 219 221 222
222 224 226 227 228 226 222 216 210 207 207 209 210 210 209 208 206 204 203 204 208 211 213 214 214 216 218 220 222 222 222 223 221 220 221 222 223 224
230 224 224 224 224 222 219 213 208 205 205 207 209 208 208 208 206 204 202 203 205 208 211 212 213 215 216 218 220 221 222 223 222 222 222 224 226 227
233 224 221 221 220 219 214 209 205 203 202 204 207 207 207 207 206 205 203 203 204 205 209 211 213 214 216 217 219 220 221 222 223 223 223 225 227 228
242 226 220 217 215 212 208 204 202 200 199 201 204 206 206 206 207 206 205 205 205 204 206 209 211 212 213 215 217 218 219 220 220 221 222 225 226 227
246 227 220 215 208 203 199 197 197 196 196 198 202 204 205 205 206 207 207 206 205 204 205 207 209 211 213 214 215 217 218 217 218 220 221 224 226 227
258 227 217 207 200 194 190 190 191 192 194 196 200 203 204 205 206 207 208 208 206 205 206 205 207 210 213 213 214 214 215 216 216 217 219 222 224 226
294 225 208 199 191 184 183 183 185 188 190 193 198 201 203 204 206 207 208 209 209 209 208 206 206 207 210 212 213 214 214 215 216 217 218 222 225 227
343 213 193 187 182 177 176 177 181 184 186 190 195 199 202 204 205 206 207 208 210 210 210 208 205 206 208 209 211 212 214 214 215 216 218 220 223 225
5 158 175 175 173 172 172 173 177 180 183 187 193 198 201 204 205 206 206 207 209 210 210 210 208 208 208 209 210 211 213 214 215 216 218 220 222 225
17 89 161 167 168 168 169 170 173 176 180 185 190 196 200 203 204 205 204 204 205 207 209 209 211 212 212 211 211 211 213 214 216 217 219 220 222 225
26 68 148 163 165 167 167 168 170 173 178 183 189 196 201 204 205 205 204 203 201 203 206 208 209 212 214 214 214 213 214 216 217 218 219 220 222 224
30 57 131 158 164 166 168 168 169 172 176 182 189 195 201 206 207 206 204 202 199 198 200 203 205 208 212 214 215 215 216 216 217 218 219 220 223 225
31 47 108 156 166 169 170 170 171 173 177 182 189 195 201 206 208 208 205 201 198 197 198 199 202 205 209 212 214 215 216 218 218 218 220 222 223 225
29 37 73 149 170 175 175 175 175 176 179 185 191 197 202 207 209 209 206 202 198 196 195 196 198 201 205 210 212 214 214 216 218 220 222 224 225 226
28 31 45 122 172 181 182 182 181 181 182 185 191 197 202 207 209 209 207 204 200 197 194 193 194 196 199 205 211 213 215 216 218 220 221 223 225 226
27 29 34 54 168 187 190 190 189 188 187 188 192 196 200 204 207 207 206 204 201 198 194 193 193 194 198 202 207 211 214 216 217 218 219 220 222 225
26 28 30 34 75 190 196 197 197 195 194 193 195 197 199 201 202 203 203 202 200 199 197 194 193 193 196 199 204 207 209 212 214 216 219 221 222 223
25 26 28 30 33 174 201 202 202 201 200 199 199 198 199 199 199 199 199 198 198 198 197 196 194 193 194 196 200 205 208 210 212 214 216 220 222 224
23 24 26 27 27 26 210 207 206 205 205 204 202 200 199 199 199 198 196 195 195 195 195 196 196 195 195 195 197 201 205 208 209 211 213 215 218 220
21 22 23 24 24 23 16 219 211 209 208 207 205 203 201 200 198 197 195 194 193 193 193 194 195 196 196 196 197 199 201 205 208 208 209 210 212 215
Height
5279 5288 5296 5303 5311 5318 5326 5336 5348 5360 5375 5392 5408 5426 5446 5470 5493 5516 5538 5557 5575 5591 5608 5624 5639 5654 5668 5678 5689 5699 5706 5716 5726 5736 5746 5754 5762 5769
5274 5281 5288 5295 5302 5309 5316 5325 5336 5349 5364 5380 5397 5414 5432 5454 5477 5501 5523 5543 5561 5577 5594 5611 5627 5642 5656 5668 5679 5689 5698 5706 5716 5727 5736 5745 5753 5760
5272 5278 5284 5290 5296 5302 5309 5317 5327 5340 5354 5369 5386 5403 5422 5441 5464 5487 5509 5529 5548 5565 5581 5598 5614 5630 5644 5657 5669 5680 5690 5700 5709 5718 5727 5736 5744 5752
5273 5277 5282 5287 5291 5296 5303 5310 5321 5332 5347 5361 5377 5395 5413 5431 5452 5474 5496 5516 5535 5552 5569 5586 5602 5617 5632 5645 5658 5670 5682 5691 5701 5710 5719 5728 5735 5742
5275 5277 5280 5284 5288 5293 5299 5306 5316 5327 5340 5354 5369 5386 5404 5421 5441 5461 5482 5502 5522 5540 5557 5574 5590 5605 5619 5633 5646 5660 5673 5684 5693 5702 5711 5719 5727 5734
5275 5277 5279 5282 5286 5291 5297 5303 5312 5323 5335 5348 5363 5380 5397 5414 5431 5450 5470 5489 5508 5528 5545 5563 5579 5594 5608 5622 5638 5650 5663 5674 5685 5694 5703 5711 5719 5726
5276 5277 5279 5281 5285 5289 5295 5301 5309 5319 5331 5343 5357 5374 5390 5407 5423 5440 5459 5477 5496 5516 5534 5552 5568 5583 5597 5611 5624 5638 5651 5664 5676 5685 5695 5704 5711 5718
5275 5276 5278 5281 5284 5288 5293 5300 5308 5317 5328 5340 5354 5369 5385 5401 5416 5432 5449 5467 5486 5505 5522 5540 5556 5571 5585 5600 5613 5626 5640 5653 5665 5677 5687 5696 5703 5711
5275 5276 5278 5280 5283 5288 5293 5299 5307 5316 5326 5338 5351 5366 5382 5397 5411 5426 5441 5457 5475 5492 5510 5529 5545 5560 5574 5588 5601 5615 5628 5642 5654 5666 5677 5686 5694 5702
5275 5276 5278 5280 5284 5288 5294 5300 5307 5316 5325 5337 5350 5365 5379 5393 5406 5419 5433 5449 5466 5483 5500 5519 5535 5549 5564 5577 5591 5604 5618 5631 5643 5655 5666 5675 5684 5692
5276 5277 5278 5281 5285 5289 5295 5301 5308 5316 5326 5337 5349 5363 5376 5389 5401 5414 5427 5442 5457 5473 5490 5508 5524 5538 5552 5565 5580 5593 5607 5620 5632 5644 5654 5664 5673 5681
5278 5278 5280 5283 5287 5291 5297 5303 5310 5318 5326 5337 5349 5361 5374 5386 5397 5409 5422 5435 5450 5465 5480 5498 5513 5526 5540 5554 5568 5582 5596 5609 5621 5632 5643 5654 5663 5671
5282 5282 5283 5286 5290 5295 5300 5306 5312 5320 5328 5338 5348 5360 5371 5382 5393 5404 5416 5429 5443 5458 5473 5488 5502 5515 5530 5545 5558 5572 5585 5598 5610 5622 5632 5643 5653 5663
5286 5286 5287 5290 5294 5298 5303 5309 5315 5322 5330 5339 5348 5358 5368 5378 5389 5399 5410 5423 5436 5450 5464 5478 5492 5506 5520 5534 5548 5560 5574 5587 5600 5612 5623 5633 5643 5652
5291 5290 5292 5295 5298 5302 5307 5312 5318 5324 5331 5339 5347 5356 5365 5374 5383 5394 5404 5416 5429 5442 5456 5471 5484 5496 5509 5524 5538 5551 5564 5576 5589 5602 5614 5624 5634 5644
5297 5296 5297 5299 5303 5306 5311 5315 5321 5326 5333 5340 5347 5354 5362 5370 5378 5387 5398 5409 5422 5435 5448 5462 5476 5488 5500 5513 5527 5540 5553 5566 5579 5593 5605 5616 5625 5634
5304 5302 5302 5304 5307 5310 5314 5318 5323 5328 5334 5340 5346 5352 5359 5366 5373 5381 5390 5401 5413 5427 5440 5454 5467 5480 5492 5504 5516 5529 5544 5558 5572 5585 5597 5607 5616 5624
5311 5308 5307 5307 5310 5313 5316 5320 5325 5329 5334 5340 5345 5350 5356 5362 5368 5375 5383 5393 5405 5418 5431 5444 5458 5471 5483 5495 5506 5521 5535 5549 5562 5574 5586 5596 5605 5613
5320 5314 5311 5311 5312 5314 5318 5322 5326 5330 5335 5339 5344 5349 5354 5358 5363 5369 5376 5385 5396 5409 5422 5436 5449 5463 5475 5487 5498 5512 5527 5540 5552 5563 5574 5585 5594 5603
5328 5321 5317 5314 5314 5316 5318 5322 5326 5330 5335 5339 5343 5347 5351 5356 5360 5365 5371 5379 5389 5401 5414 5427 5440 5454 5468 5481 5493 5505 5517 5531 5543 5554 5565 5574 5583 5592
5336 5329 5323 5319 5316 5317 5318 5321 5325 5329 5333 5338 5342 5346 5350 5354 5358 5363 5368 5374 5383 5394 5406 5420 5434 5448 5462 5474 5486 5498 5510 5522 5534 5546 5556 5565 5573 5581
5342 5335 5329 5324 5320 5318 5318 5320 5323 5327 5331 5336 5340 5344 5348 5352 5356 5360 5366 5372 5379 5389 5401 5413 5426 5440 5453 5466 5479 5491 5503 5514 5524 5534 5545 5556 5565 5573
5347 5341 5335 5329 5324 5321 5319 5319 5320 5324 5328 5332 5337 5342 5346 5350 5354 5358 5363 5370 5377 5385 5396 5407 5419 5432 5445 5458 5471 5483 5495 5506 5516 5525 5534 5543 5552 5560